When you browse on this site, cookies collect data to enhance your experience and personalize the content and advertising you see.
Visit our Privacy Policy to learn more. By continuing to use the site, you agree to this use of cookies and data.
EN

Hourly Weather Livingstone

Today, 13 July, Monday

Time Temperature Precipitation Wind Pressure Humidity
00:00 +13°C° 0 mm 1 mps 685 mmHg 28%
01:00 +12°C° 0 mm 1 mps 685 mmHg 29%
02:00 +12°C° 0 mm 1 mps 684 mmHg 32%
03:00 +11°C° 0 mm 1 mps 684 mmHg 34%
04:00 +10°C° 0 mm 1 mps 684 mmHg 36%
05:00 +10°C° 0 mm 1 mps 684 mmHg 37%
06:00 +11°C° 0 mm 1 mps 684 mmHg 36%
07:00 +12°C° 0 mm 1 mps 685 mmHg 35%
08:00 +13°C° 0 mm 1 mps 685 mmHg 33%
09:00 +18°C° 0 mm 1 mps 686 mmHg 29%
10:00 +21°C° 0 mm 2 mps 687 mmHg 26%
11:00 +26°C° 0 mm 2 mps 687 mmHg 22%
12:00 +29°C° 0 mm 1 mps 687 mmHg 19%
13:00 +31°C° 0 mm 1 mps 686 mmHg 16%
14:00 +31°C° 0 mm 0 mps 686 mmHg 11%
15:00 +32°C° 0 mm 1 mps 685 mmHg 11%
16:00 +30°C° 0 mm 1 mps 685 mmHg 11%
17:00 +29°C° 0 mm 2 mps 684 mmHg 11%
18:00 +25°C° 0 mm 2 mps 684 mmHg 18%
19:00 +20°C° 0 mm 2 mps 684 mmHg 25%
20:00 +16°C° 0 mm 1 mps 683 mmHg 32%
21:00 +15°C° 0 mm 1 mps 683 mmHg 38%
22:00 +14°C° 0 mm 1 mps 683 mmHg 44%
23:00 +13°C° 0 mm 1 mps 683 mmHg 51%

Tomorrow, 14 July, Tuesday

Time Temperature Precipitation Wind Pressure Humidity
00:00 +12°C° 0 mm 1 mps 683 mmHg 52%
01:00 +11°C° 0 mm 1 mps 683 mmHg 54%
02:00 +9°C° 0 mm 0 mps 683 mmHg 56%
03:00 +9°C° 0 mm 0 mps 683 mmHg 55%
04:00 +8°C° 0 mm 0 mps 683 mmHg 55%
05:00 +8°C° 0 mm 0 mps 683 mmHg 54%
06:00 +10°C° 0 mm 0 mps 683 mmHg 48%
07:00 +11°C° 0 mm 0 mps 684 mmHg 43%
08:00 +13°C° 0 mm 0 mps 685 mmHg 37%
09:00 +19°C° 0 mm 1 mps 685 mmHg 30%
10:00 +23°C° 0 mm 1 mps 686 mmHg 23%
11:00 +27°C° 0 mm 2 mps 687 mmHg 15%
12:00 +29°C° 0 mm 2 mps 686 mmHg 13%
13:00 +30°C° 0 mm 2 mps 686 mmHg 10%
14:00 +31°C° 0 mm 2 mps 685 mmHg 8%
15:00 +30°C° 0 mm 2 mps 685 mmHg 8%
16:00 +30°C° 0 mm 2 mps 685 mmHg 8%
17:00 +29°C° 0 mm 2 mps 684 mmHg 8%
18:00 +25°C° 0 mm 2 mps 684 mmHg 10%
19:00 +21°C° 0 mm 1 mps 684 mmHg 12%
20:00 +16°C° 0 mm 1 mps 684 mmHg 15%
21:00 +15°C° 0 mm 1 mps 684 mmHg 15%
22:00 +14°C° 0 mm 1 mps 684 mmHg 16%
23:00 +13°C° 0 mm 1 mps 684 mmHg 16%

Day after tomorrow, 15 July, Wednesday

Time Temperature Precipitation Wind Pressure Humidity
00:00 +12°C° 0 mm 1 mps 685 mmHg 17%
01:00 +12°C° 0 mm 1 mps 685 mmHg 18%
02:00 +10°C° 0 mm 2 mps 685 mmHg 19%
03:00 +10°C° 0 mm 2 mps 685 mmHg 19%
04:00 +9°C° 0 mm 2 mps 685 mmHg 20%
05:00 +9°C° 0 mm 2 mps 685 mmHg 20%
06:00 +9°C° 0 mm 2 mps 686 mmHg 19%
07:00 +10°C° 0 mm 2 mps 687 mmHg 18%
08:00 +12°C° 0 mm 2 mps 688 mmHg 18%
09:00 +14°C° 0 mm 3 mps 688 mmHg 15%
10:00 +19°C° 0 mm 4 mps 689 mmHg 12%
11:00 +23°C° 0 mm 5 mps 690 mmHg 10%
12:00 +25°C° 0 mm 5 mps 689 mmHg 9%
13:00 +26°C° 0 mm 5 mps 689 mmHg 9%
14:00 +28°C° 0 mm 5 mps 688 mmHg 9%
15:00 +27°C° 0 mm 5 mps 688 mmHg 9%
16:00 +27°C° 0 mm 4 mps 688 mmHg 10%
17:00 +27°C° 0 mm 4 mps 687 mmHg 10%
18:00 +22°C° 0 mm 3 mps 687 mmHg 14%
19:00 +19°C° 0 mm 2 mps 687 mmHg 18%
20:00 +16°C° 0 mm 2 mps 687 mmHg 23%
21:00 +14°C° 0 mm 3 mps 688 mmHg 33%
22:00 +14°C° 0 mm 4 mps 689 mmHg 44%
23:00 +14°C° 0 mm 5 mps 689 mmHg 54%

16 July, Thursday

Time Temperature Precipitation Wind Pressure Humidity
00:00 +13°C° 0 mm 5 mps 689 mmHg 60%
01:00 +12°C° 0 mm 5 mps 689 mmHg 66%
02:00 +10°C° 0 mm 5 mps 689 mmHg 71%
03:00 +10°C° 0 mm 4 mps 689 mmHg 75%
04:00 +8°C° 0 mm 4 mps 689 mmHg 79%
05:00 +8°C° 0 mm 4 mps 689 mmHg 82%
06:00 +8°C° 0 mm 4 mps 690 mmHg 80%
07:00 +10°C° 0 mm 4 mps 691 mmHg 77%
08:00 +9°C° 0 mm 5 mps 692 mmHg 74%
09:00 +13°C° 0 mm 5 mps 692 mmHg 64%
10:00 +15°C° 0 mm 5 mps 692 mmHg 53%
11:00 +19°C° 0 mm 5 mps 693 mmHg 43%
12:00 +20°C° 0 mm 5 mps 692 mmHg 39%
13:00 +21°C° 0 mm 5 mps 691 mmHg 35%
14:00 +22°C° 0 mm 4 mps 690 mmHg 31%
15:00 +22°C° 0 mm 4 mps 690 mmHg 30%
16:00 +22°C° 0 mm 4 mps 690 mmHg 28%
17:00 +22°C° 0 mm 3 mps 689 mmHg 27%
18:00 +19°C° 0 mm 3 mps 689 mmHg 33%
19:00 +16°C° 0 mm 2 mps 689 mmHg 40%
20:00 +13°C° 0 mm 1 mps 689 mmHg 46%
21:00 +12°C° 0 mm 1 mps 689 mmHg 48%
22:00 +12°C° 0 mm 2 mps 689 mmHg 49%
23:00 +10°C° 0 mm 2 mps 689 mmHg 51%

17 July, Friday

Time Temperature Precipitation Wind Pressure Humidity
00:00 +9°C° 0 mm 2 mps 689 mmHg 52%
01:00 +9°C° 0 mm 3 mps 689 mmHg 53%
02:00 +8°C° 0 mm 3 mps 689 mmHg 55%
03:00 +7°C° 0 mm 3 mps 689 mmHg 62%
04:00 +7°C° 0 mm 3 mps 689 mmHg 68%
05:00 +5°C° 0 mm 3 mps 689 mmHg 75%
06:00 +5°C° 0 mm 3 mps 690 mmHg 73%
07:00 +7°C° 0 mm 3 mps 690 mmHg 71%
08:00 +7°C° 0 mm 4 mps 691 mmHg 70%
09:00 +10°C° 0 mm 4 mps 691 mmHg 61%
10:00 +13°C° 0 mm 4 mps 691 mmHg 52%
11:00 +15°C° 0 mm 5 mps 691 mmHg 43%
12:00 +17°C° 0 mm 5 mps 691 mmHg 37%
13:00 +20°C° 0 mm 4 mps 690 mmHg 31%
14:00 +22°C° 0 mm 4 mps 689 mmHg 25%
15:00 +21°C° 0 mm 4 mps 689 mmHg 25%
16:00 +21°C° 0 mm 4 mps 688 mmHg 25%
17:00 +21°C° 0 mm 4 mps 688 mmHg 24%
18:00 +18°C° 0 mm 3 mps 688 mmHg 32%
19:00 +15°C° 0 mm 2 mps 687 mmHg 39%
20:00 +12°C° 0 mm 1 mps 687 mmHg 46%
21:00 +11°C° 0 mm 1 mps 687 mmHg 48%
22:00 +10°C° 0 mm 1 mps 687 mmHg 51%
23:00 +10°C° 0 mm 1 mps 688 mmHg 53%

18 July, Saturday

Time Temperature Precipitation Wind Pressure Humidity
00:00 +9°C° 0 mm 1 mps 688 mmHg 55%
01:00 +9°C° 0 mm 1 mps 687 mmHg 57%
02:00 +7°C° 0 mm 2 mps 687 mmHg 59%
03:00 +6°C° 0 mm 2 mps 687 mmHg 64%
04:00 +6°C° 0 mm 2 mps 687 mmHg 69%
05:00 +5°C° 0 mm 2 mps 688 mmHg 74%
06:00 +6°C° 0 mm 2 mps 688 mmHg 71%
07:00 +7°C° 0 mm 2 mps 689 mmHg 69%
08:00 +9°C° 0 mm 1 mps 689 mmHg 67%
09:00 +13°C° 0 mm 2 mps 690 mmHg 57%
10:00 +16°C° 0 mm 3 mps 690 mmHg 47%
11:00 +19°C° 0 mm 4 mps 690 mmHg 37%
12:00 +21°C° 0 mm 4 mps 690 mmHg 33%
13:00 +22°C° 0 mm 4 mps 689 mmHg 28%
14:00 +23°C° 0 mm 4 mps 688 mmHg 24%
15:00 +23°C° 0 mm 4 mps 688 mmHg 25%
16:00 +22°C° 0 mm 4 mps 687 mmHg 25%
17:00 +22°C° 0 mm 4 mps 687 mmHg 26%
18:00 +19°C° 0 mm 3 mps 687 mmHg 33%
19:00 +16°C° 0 mm 2 mps 687 mmHg 41%
20:00 +13°C° 0 mm 1 mps 686 mmHg 48%
21:00 +12°C° 0 mm 1 mps 686 mmHg 51%
22:00 +11°C° 0 mm 1 mps 686 mmHg 54%
23:00 +10°C° 0 mm 0 mps 686 mmHg 57%
Show more